Weather History for KDYT - October, 2011

Change the Weather History Date:

Saturday, October 29, 2011

  Actual Average Record
Temperature  
Mean Temperature 42 °F -  
Max Temperature 51 °F 47 °F 70 °F (1950)
Min Temperature 32 °F 32 °F 15 °F (1980)
Degree Days  
Heating Degree Days 24    
Moisture  
Dew Point 32 °F    
Average Humidity 72    
Maximum Humidity 87    
Minimum Humidity 43    
Precipitation  
Precipitation 0.00 in - - ()
Sea Level Pressure  
Sea Level Pressure 30.00 in    
Wind  
Wind Speed 6 mph (South)    
Max Wind Speed 12 mph    
Max Gust Speed -    
Visibility 10 miles    
Events      
Averages and records for this station are not official NWS values.
T = Trace of Precipitation, MM = Missing Value Source: NWS Daily Summary

Daily Weather History Graph

Daily Weather History Graph

Search for Another Location

Airport or City:

Trip Planner

Search our weather history database for the weather conditions in past years. The results will help you decide how hot, cold, wet, or windy it might be!

Date:

Astronomy

Oct. 29, 2011 Rise Set
Actual Time 7:45 AM CDT 5:57 PM CDT
Civil Twilight 7:14 AM CDT 6:28 PM CDT
Nautical Twilight 6:38 AM CDT 7:04 PM CDT
Astronomical Twilight 6:03 AM CDT 7:39 PM CDT
Moon 11:20 AM CDT (10/29) 8:09 PM CDT (10/29)
Length of Visible Light 11h 14m
Length of Day
10h 12m
Waxing Crescent, 12% of the Moon is Illuminated
Oct 29
Waxing Crescent
Nov 2
First Quarter
Nov 10
Full
Nov 18
Last Quarter
Nov 25
New

Hourly Weather History & Observations

Time (CDT) Temp. Windchill Dew Point Humidity Pressure Visibility Wind Dir Wind Speed Gust Speed Precip Events Conditions
12:13 AM 39.2 °F 33.6 °F 33.8 °F 81% 30.00 in 10.0 mi West 8.1 mph - N/A   Clear
12:33 AM 37.4 °F 32.8 °F 33.8 °F 87% 30.00 in 10.0 mi West 5.8 mph - N/A   Clear
12:54 AM 37.4 °F 30.8 °F 33.8 °F 87% 30.00 in 10.0 mi West 9.2 mph - N/A   Scattered Clouds
1:13 AM 39.2 °F 33.0 °F 33.8 °F 81% 30.00 in 10.0 mi West 9.2 mph - N/A   Overcast
1:53 AM 39.2 °F 33.0 °F 33.8 °F 81% 29.99 in 10.0 mi West 9.2 mph - N/A   Overcast
2:13 AM 39.2 °F 33.0 °F 33.8 °F 81% 30.00 in 10.0 mi West 9.2 mph - N/A   Overcast
2:33 AM 39.2 °F 33.6 °F 33.8 °F 81% 30.00 in 10.0 mi West 8.1 mph - N/A   Mostly Cloudy
2:54 AM 37.4 °F 32.1 °F 33.8 °F 87% 30.00 in 10.0 mi WSW 6.9 mph - N/A   Mostly Cloudy
3:13 AM 37.4 °F 32.8 °F 32.0 °F 81% 30.00 in 10.0 mi WSW 5.8 mph - N/A   Scattered Clouds
3:33 AM 37.4 °F 32.8 °F 32.0 °F 81% 30.00 in 10.0 mi SW 5.8 mph - N/A   Mostly Cloudy
3:54 AM 37.4 °F - 32.0 °F 81% 30.00 in 10.0 mi Calm Calm - N/A   Scattered Clouds
4:13 AM 35.6 °F 30.7 °F 32.0 °F 87% 30.00 in 10.0 mi SSE 5.8 mph - N/A   Scattered Clouds
4:33 AM 35.6 °F 32.8 °F 30.2 °F 81% 30.00 in 10.0 mi South 3.5 mph - N/A   Scattered Clouds
5:13 AM 33.8 °F 30.8 °F 30.2 °F 87% 30.00 in 10.0 mi SSW 3.5 mph - N/A   Clear
5:54 AM 33.8 °F 27.0 °F 30.2 °F 87% 30.01 in 10.0 mi SSW 8.1 mph - N/A   Clear
6:13 AM 33.8 °F 26.4 °F 30.2 °F 87% 30.01 in 10.0 mi SW 9.2 mph - N/A   Clear
6:33 AM 33.8 °F 28.6 °F 30.2 °F 87% 30.01 in 10.0 mi SW 5.8 mph - N/A   Clear
6:54 AM 33.8 °F 28.6 °F 30.2 °F 87% 30.01 in 10.0 mi SSW 5.8 mph - N/A   Clear
7:13 AM 33.8 °F 27.7 °F 30.2 °F 87% 30.01 in 10.0 mi SW 6.9 mph - N/A   Clear
7:54 AM 32.0 °F 25.6 °F 28.4 °F 87% 30.02 in 10.0 mi SSW 6.9 mph - N/A   Clear
8:13 AM 32.0 °F 26.4 °F 28.4 °F 87% 30.02 in 10.0 mi SSW 5.8 mph - N/A   Clear
8:33 AM 32.0 °F 25.6 °F 28.4 °F 87% 30.03 in 10.0 mi South 6.9 mph - N/A   Scattered Clouds
8:54 AM 33.8 °F 27.7 °F 30.2 °F 87% 30.03 in 10.0 mi SSW 6.9 mph - N/A   Clear
9:13 AM 33.8 °F 27.0 °F 30.2 °F 87% 30.03 in 10.0 mi SSW 8.1 mph - N/A   Clear
9:33 AM 33.8 °F 28.6 °F 30.2 °F 87% 30.03 in 10.0 mi SSW 5.8 mph - N/A   Clear
9:53 AM 35.6 °F 30.7 °F 32.0 °F 87% 30.03 in 10.0 mi South 5.8 mph - N/A   Clear
10:13 AM 37.4 °F 32.1 °F 33.8 °F 87% 30.04 in 10.0 mi SSW 6.9 mph - N/A   Clear
10:33 AM 39.2 °F - 33.8 °F 81% 30.03 in 10.0 mi Calm Calm - N/A   Clear
10:53 AM 41.0 °F 38.0 °F 33.8 °F 76% 30.04 in 10.0 mi South 4.6 mph - N/A   Clear
11:14 AM 42.8 °F - 33.8 °F 70% 30.04 in 10.0 mi Calm Calm - N/A   Clear
11:33 AM 44.6 °F 42.2 °F 33.8 °F 66% 30.04 in 10.0 mi SSW 4.6 mph - N/A   Clear
11:53 AM 46.4 °F - 33.8 °F 62% 30.04 in 10.0 mi Calm Calm - N/A   Clear
12:53 PM 48.2 °F - 30.2 °F 50% 30.02 in 10.0 mi Calm Calm - N/A   Clear
1:13 PM 48.2 °F - 32.0 °F 54% 30.02 in 10.0 mi Calm Calm - N/A   Scattered Clouds
1:33 PM 48.2 °F - 33.8 °F 58% 30.01 in 10.0 mi Calm Calm - N/A   Scattered Clouds
1:54 PM 48.2 °F - 28.4 °F 46% 30.00 in 10.0 mi Calm Calm - N/A   Scattered Clouds
2:13 PM 50.0 °F - 28.4 °F 43% 29.99 in 10.0 mi Calm Calm - N/A   Clear
2:33 PM 48.2 °F - 33.8 °F 58% 29.99 in 10.0 mi East 4.6 mph - N/A   Clear
2:54 PM 50.0 °F - 33.8 °F 54% 29.99 in 10.0 mi East 4.6 mph - N/A   Clear
3:13 PM 51.8 °F - 35.6 °F 54% 29.98 in 10.0 mi East 9.2 mph - N/A   Clear
3:33 PM 50.0 °F - 35.6 °F 58% 29.98 in 10.0 mi East 9.2 mph - N/A   Clear
3:54 PM 48.2 °F - 35.6 °F 62% 29.97 in 10.0 mi East 9.2 mph - N/A   Clear
4:13 PM 48.2 °F - 37.4 °F 66% 29.97 in 10.0 mi East 10.4 mph - N/A   Clear
4:33 PM 48.2 °F - 35.6 °F 62% 29.97 in 10.0 mi East 9.2 mph - N/A   Clear
4:54 PM 48.2 °F - 35.6 °F 62% 29.97 in 10.0 mi East 9.2 mph - N/A   Clear
5:13 PM 48.2 °F - 37.4 °F 66% 29.97 in 10.0 mi East 8.1 mph - N/A   Clear
5:33 PM 46.4 °F 42.9 °F 37.4 °F 71% 29.98 in 10.0 mi East 6.9 mph - N/A   Clear
6:13 PM 46.4 °F 42.9 °F 37.4 °F 71% 29.98 in 10.0 mi East 6.9 mph - N/A   Scattered Clouds
6:34 PM 46.4 °F 41.1 °F 37.4 °F 71% 29.98 in 10.0 mi East 11.5 mph - N/A   Mostly Cloudy
7:13 PM 46.4 °F 42.9 °F 37.4 °F 71% 29.98 in 10.0 mi ESE 6.9 mph - N/A   Clear
7:33 PM 44.6 °F 41.4 °F 35.6 °F 71% 29.98 in 10.0 mi ESE 5.8 mph - N/A   Clear
7:53 PM 44.6 °F - 32.0 °F 61% 29.97 in 10.0 mi Calm Calm - N/A   Clear
8:13 PM 44.6 °F 42.2 °F 28.4 °F 53% 29.98 in 10.0 mi SSW 4.6 mph - N/A   Clear
8:33 PM 44.6 °F 43.1 °F 26.6 °F 49% 29.97 in 10.0 mi SSW 3.5 mph - N/A   Clear
8:53 PM 44.6 °F 43.1 °F 28.4 °F 53% 29.98 in 10.0 mi SW 3.5 mph - N/A   Clear
9:14 PM 42.8 °F 40.1 °F 26.6 °F 53% 29.98 in 10.0 mi SW 4.6 mph - N/A   Clear
9:33 PM 42.8 °F 41.1 °F 26.6 °F 53% 29.99 in 10.0 mi SSW 3.5 mph - N/A   Clear
9:53 PM 42.8 °F - 26.6 °F 53% 29.99 in 10.0 mi Calm Calm - N/A   Clear
10:14 PM 41.0 °F - 26.6 °F 57% 29.99 in 10.0 mi Calm Calm - N/A   Clear
10:33 PM 41.0 °F - 26.6 °F 57% 29.99 in 10.0 mi Calm Calm - N/A   Clear
10:53 PM 39.2 °F - 26.6 °F 61% 29.98 in 10.0 mi Calm Calm - N/A   Clear
11:14 PM 39.2 °F - 26.6 °F 61% 29.98 in 10.0 mi Calm Calm - N/A   Clear
11:33 PM 39.2 °F - 26.6 °F 61% 29.98 in 10.0 mi Calm Calm - N/A   Clear
11:53 PM 39.2 °F - 26.6 °F 61% 29.97 in 10.0 mi Calm Calm - N/A   Scattered Clouds